Regional Weather Roundup
Issued by NWS Sioux Falls, SD

Home | Current Version | Previous Version | Text Only | Print | Product List | Glossary Off
Versions: 1 2 3 4 5 6 7 8 9 10 11 12 13 14 15 16 17 18 19 20 21 22 23 24 25 26 27 28 29 30 31 32 33 34 35 36 37 38 39 40 41 42 43 44 45 46 47 48 49 50

000
ASUS43 KFSD 011510
RWRFSD

WEATHER ROUNDUP FOR SE SOUTH DAKOTA/SW MINNESOTA/NW IOWA
NATIONAL WEATHER SERVICE SIOUX FALLS SD
1000 AM CDT WED OCT 01 2014

NOTE: "FAIR" INDICATES FEW OR NO CLOUDS BELOW 12,000 FEET WITH NO
SIGNIFICANT WEATHER AND OR OBSTRUCTIONS TO VISIBILITY.


SDZ038>040-050-052>070-011600-
SOUTHEAST SOUTH DAKOTA

CITY           SKY/WX    TMP DP  RH WIND       PRES   REMARKS
CHAMBERLAIN    FAIR      60  50  69 NW9       29.77R
HURON          PTSUNNY   63  55  75 W9        29.74R
MADISON        PTSUNNY   63  63 100 SW8       29.74S
MITCHELL       CLOUDY    64  61  90 W6        29.74R
SIOUX FALLS    CLOUDY    65  60  84 S8        29.74S
WINNER         FAIR      63  49  60 NW15      29.79R
YANKTON        FAIR      64  61  88 SW6       29.73R
$$

MNZ071-072-080-081-089-090-097-098-011600-
SOUTHWEST MINNESOTA

CITY           SKY/WX    TMP DP  RH WIND       PRES   REMARKS
FAIRMONT       CLOUDY    54  48  82 SE10      29.80R
JACKSON        CLOUDY    55  54  94 SE7       29.79R FOG
LUVERNE        FAIR      64  59  82 SW7       29.75S
MARSHALL       CLOUDY    63  55  77 SE10      29.73F
MONTEVIDEO     CLOUDY    59  59 100 S8        29.74S FOG
PIPESTONE      CLOUDY    63  61  94 SW12      29.75R
REDWOOD FALLS  CLOUDY    59  55  87 S13       29.76F
TRACY          PTSUNNY   64  59  84 S9        29.75F
WINDOM         FOG       55  55 100 SE6       29.79R VSB 3/4
WORTHINGTON    CLOUDY    57  57 100 SE6       29.78R
$$

IAZ001>003-012>014-020>022-031-032-NEZ013-014-SDZ071-011600-
NORTHWEST IOWA

CITY           SKY/WX    TMP DP  RH WIND       PRES   REMARKS
CHEROKEE       DRIZZLE   60  60 100 CALM      29.77R
DENISON        CLOUDY    63  63 100 W6        29.76R
ESTHERVILLE    LGT RAIN  54  53  97 SE7       29.79S FOG
LE MARS        FAIR      64  61  88 CALM      29.76S
ORANGE CITY    PTSUNNY   63  59  88 E3        29.75F FOG
SHELDON        CLOUDY    61  61 100 SE5       29.76S FOG
SIOUX CITY     FAIR      66  61  84 S5        29.75F
SPENCER        CLOUDY    57  55  93 E5        29.79R FOG
STORM LAKE     PTSUNNY   64  63  94 W12       29.77S
$$

ABBREVIATIONS USED IN REMARKS
   TC - TEMPERATURE IN CELSIUS
  WCI - WIND CHILL INDEX
   HX - HEAT INDEX
  VSB - VISIBILITY




USA.gov is the U.S. government's official web portal to all federal, state and local government web resources and services.